[[{"header":{"parameterUnit":"m.s-1","parameterCategory":2,"la1":30.2991,"la2":30.254,"lo1":-89.0895,"lo2":-89.0444,"dy":0.0017,"dx":0.0017,"nx":28,"ny":28,"refTime":"2025-01-26T03:00:00:Z","depth":"0","parameterNumber":2,"parameterNumberName":"U-component_of_CURRENTS"},"data":[0,0,0,0,0,0,0,0,0,0,0,0,0,0,0,0,0,0,0,0,0,0,0,0,0,0,0,0,0,0,0,0,0,0,0,0,0,0,0,0,0,0,0,0,0,0,0,0,0,0,0,0,0,0,0,0,0,0,-0.2893,-0.2894,0,-0.295,-0.2951,-0.2951,-0.2949,-0.2948,-0.2947,-0.2947,-0.2979,-0.2981,-0.2982,0,0,0,0,0,0,0,0,0,0,0,0,0,-0.2793,-0.2795,-0.2893,-0.2894,-0.2895,-0.295,-0.2951,-0.2951,-0.2949,-0.2948,-0.2947,-0.2947,-0.2979,-0.298,-0.2982,0,0,0,0,0,0,0,0,0,0,0,0,0,-0.2839,-0.2795,-0.2893,-0.2902,-0.2904,-0.295,-0.2951,-0.2951,-0.2949,-0.2948,-0.2947,-0.2946,-0.2978,-0.298,-0.2982,-0.3012,0,0,-0.2989,-0.2989,0,0,0,0,0,0,0,0,-0.2837,-0.2843,-0.29,-0.2902,-0.2904,-0.2944,-0.2927,-0.2971,-0.2949,-0.2929,-0.2947,-0.2946,-0.2967,-0.297,-0.2979,-0.3013,-0.3015,-0.2989,-0.299,-0.2991,-0.2991,0,0,0,0,0,0,0,-0.2834,-0.284,-0.2913,-0.2901,-0.2903,-0.2908,-0.2913,-0.2936,-0.295,-0.2931,-0.2931,-0.2942,-0.2968,-0.2977,-0.298,-0.3015,-0.2989,-0.299,-0.2992,-0.2993,-0.3037,-0.3037,0,0,0,0,0,0,-0.2833,-0.2838,-0.2911,-0.2915,-0.2871,-0.2911,-0.2916,-0.293,-0.295,-0.2953,-0.2943,-0.2942,-0.2974,-0.2978,-0.2981,-0.2985,-0.2991,-0.2993,-0.2994,-0.3037,-0.3037,-0.3037,0,0,0,0,0,0,-0.283,-0.2839,-0.2909,-0.2879,-0.2889,-0.2913,-0.2928,-0.2931,-0.2939,-0.296,-0.2962,-0.2947,-0.2974,-0.2978,-0.2992,-0.2988,-0.2994,-0.2996,-0.3037,-0.3037,-0.3037,-0.3014,0,0,0,0,0,0,-0.2827,-0.2838,-0.2842,-0.2879,-0.2891,-0.293,-0.2929,-0.2933,-0.2948,-0.2947,-0.2965,-0.2967,-0.2973,-0.2989,-0.2994,-0.2991,-0.2997,-0.3037,-0.3037,-0.3037,-0.3015,-0.3013,-0.3012,0,0,0,0,0,-0.2823,-0.2831,-0.2842,-0.2851,-0.2898,-0.2931,-0.2936,-0.2949,-0.2949,-0.2952,-0.296,-0.2966,-0.2991,-0.2991,-0.2997,-0.2994,-0.3037,-0.3037,-0.3037,-0.3015,-0.3013,-0.3012,0,0,0,0,0,0,-0.2785,-0.2834,-0.2846,-0.2866,-0.2895,-0.2931,-0.2936,-0.2951,-0.2961,-0.2958,-0.2972,-0.2975,-0.2982,-0.2995,-0.2994,-0.3005,-0.3013,-0.3014,-0.2995,-0.2993,-0.2992,-0.2986,-0.2999,0,0,0,0,0,-0.2783,-0.2799,-0.2846,-0.2859,-0.2875,-0.2907,-0.2921,-0.2936,-0.2955,-0.2959,-0.2971,-0.2981,-0.2989,-0.2996,-0.3006,-0.3021,-0.3016,-0.3021,-0.302,-0.3018,-0.3018,-0.3001,-0.2997,-0.3036,-0.3036,-0.3036,0,0,-0.2769,-0.2799,-0.2806,-0.2852,-0.2873,-0.2901,-0.2912,-0.2935,-0.295,-0.2962,-0.2974,-0.2979,-0.2991,-0.2998,-0.3003,-0.3008,-0.3003,-0.3018,-0.3017,-0.3017,-0.3,-0.2996,-0.2993,-0.3036,-0.3036,-0.3036,0,0,-0.2757,-0.278,-0.2795,-0.2824,-0.2866,-0.2889,-0.2897,-0.2937,-0.2943,-0.2966,-0.2967,-0.2966,-0.2993,-0.2989,-0.2994,-0.2994,-0.2994,-0.3,-0.2991,-0.2974,-0.2971,-0.2967,-0.2948,-0.2943,-0.3001,-0.3001,-0.3001,0,-0.274,-0.2769,-0.2801,-0.283,-0.285,-0.2884,-0.2907,-0.2925,-0.296,-0.2964,-0.2965,-0.2979,-0.2986,-0.2985,-0.2979,-0.2989,-0.2981,-0.2996,-0.2971,-0.2968,-0.2965,-0.2946,-0.2941,-0.3,-0.3,-0.3,-0.3,0,-0.2748,-0.2772,-0.2782,-0.2828,-0.2853,-0.2875,-0.2916,-0.2932,-0.2945,-0.2961,-0.2962,-0.2965,-0.2972,-0.297,-0.2976,-0.2961,-0.2961,-0.2968,-0.2973,-0.2959,-0.2941,-0.2936,-0.2998,-0.2999,-0.2999,-0.2999,0,0,-0.2701,-0.2774,-0.2775,-0.2798,-0.2855,-0.2875,-0.2902,-0.2932,-0.2945,-0.2957,-0.2963,-0.2958,-0.2956,-0.296,-0.296,-0.2944,-0.2911,-0.2948,-0.2947,-0.2924,-0.287,-0.2792,-0.278,-0.2912,-0.2912,-0.2911,-0.2863,0,-0.2694,-0.2738,-0.2779,-0.281,-0.2835,-0.2878,-0.2901,-0.2931,-0.295,-0.2965,-0.2957,-0.2963,-0.2954,-0.2954,-0.2934,-0.2929,-0.2899,-0.2923,-0.2892,-0.2891,-0.2819,-0.2772,-0.2655,-0.2596,-0.2858,-0.2857,-0.2857,0,-0.2682,-0.2716,-0.2747,-0.2805,-0.282,-0.2842,-0.2879,-0.2909,-0.294,-0.2956,-0.2957,-0.2963,-0.2947,-0.2939,-0.2899,-0.2917,-0.2886,-0.287,-0.2868,-0.28,-0.2803,-0.2654,-0.2577,-0.2549,-0.2849,-0.285,-0.285,0,-0.2619,-0.2686,-0.2705,-0.2727,-0.2801,-0.2814,-0.2848,-0.2892,-0.2914,-0.2946,-0.296,-0.2952,-0.2946,-0.2913,-0.2882,-0.2892,-0.2832,-0.2844,-0.2737,-0.2732,-0.2628,-0.2614,-0.2514,-0.279,-0.2791,-0.2791,-0.2791,0,-0.2587,-0.2599,-0.2677,-0.2687,-0.2705,-0.2774,-0.2794,-0.2833,-0.2885,-0.2901,-0.2941,-0.2942,-0.2937,-0.2911,-0.2878,-0.2786,-0.2824,-0.2717,-0.2705,-0.2616,-0.2602,-0.2571,-0.2601,-0.2789,-0.2789,-0.279,-0.279,0,-0.2503,-0.2559,-0.2583,-0.2656,-0.2674,-0.2683,-0.2756,-0.2775,-0.2841,-0.2864,-0.2874,-0.2924,-0.2888,-0.2867,-0.2819,-0.2767,-0.2646,-0.2656,-0.255,-0.2524,-0.2387,-0.242,-0.2324,-0.2261,-0.2524,-0.2522,-0.252,0,-0.2461,-0.2466,-0.2534,-0.2544,-0.2571,-0.2607,-0.263,-0.2724,-0.2755,-0.284,-0.2841,-0.2842,-0.2798,-0.271,-0.2633,-0.2538,-0.2542,-0.2383,-0.2367,-0.2339,-0.2369,-0.24,-0.2357,-0.2226,-0.2221,-0.2218,-0.2215,0,-0.237,-0.2394,-0.2414,-0.2437,-0.2461,-0.2492,-0.2541,-0.2563,-0.2671,-0.2695,-0.2712,-0.2686,-0.2624,-0.2478,-0.2378,-0.2315,-0.2317,-0.2306,-0.23,-0.2132,-0.2138,-0.2084,-0.2314,-0.2184,-0.2187,-0.219,-0.2191,-0.2192,-0.2282,-0.2271,-0.2298,-0.2304,-0.2333,-0.2344,-0.2327,-0.2401,-0.2418,-0.2431,-0.2512,-0.2436,-0.2359,-0.2192,-0.2131,-0.1995,-0.2077,-0.1932,-0.1977,-0.2014,-0.1933,-0.2089,-0.1934,-0.1936,-0.1937,-0.1938,-0.1939,0,-0.2157,-0.2156,-0.2163,-0.2165,-0.2138,-0.2201,-0.2233,-0.2201,-0.2171,-0.2219,-0.2197,-0.2107,-0.1952,-0.1907,-0.1784,-0.1696,-0.167,-0.1667,-0.1689,-0.1662,-0.1799,-0.1763,-0.1535,-0.1535,-0.1535,-0.1535,-0.1535,-0.1535,-0.209,-0.2043,-0.2045,-0.1953,-0.1954,-0.1876,-0.1859,-0.1846,-0.1854,-0.1783,-0.1758,-0.1765,-0.1725,-0.1792,-0.1649,-0.1565,-0.1541,-0.1487,-0.1535,-0.1649,-0.1678,-0.1706,-0.1676,-0.1433,-0.1433,-0.1322,-0.1322,-0.1321]},{"header":{"parameterUnit":"m.s-1","parameterCategory":2,"la1":30.2991,"la2":30.254,"lo1":-89.0895,"lo2":-89.0444,"dy":0.0017,"dx":0.0017,"nx":28,"ny":28,"refTime":"2025-01-26T03:00:00:Z","depth":"0","parameterNumber":3,"parameterNumberName":"V-component_of_CURRENTS"},"data":[0,0,0,0,0,0,0,0,0,0,0,0,0,0,0,0,0,0,0,0,0,0,0,0,0,0,0,0,0,0,0,0,0,0,0,0,0,0,0,0,0,0,0,0,0,0,0,0,0,0,0,0,0,0,0,0,0,0,-0.0276,-0.0275,0,-0.018,-0.0178,-0.0177,-0.0103,-0.0102,-0.0102,-0.0101,0.006,0.0063,0.0067,0,0,0,0,0,0,0,0,0,0,0,0,0,-0.0336,-0.0336,-0.0276,-0.0275,-0.0273,-0.018,-0.0178,-0.0177,-0.0103,-0.0102,-0.0101,-0.0101,0.0059,0.0063,0.0067,0,0,0,0,0,0,0,0,0,0,0,0,0,-0.0281,-0.0335,-0.0276,-0.0226,-0.0221,-0.018,-0.0178,-0.0177,-0.0103,-0.0102,-0.0101,-0.01,0.0057,0.0062,0.0068,0.0085,0,0,0.0085,0.0087,0,0,0,0,0,0,0,0,-0.0284,-0.0279,-0.0235,-0.023,-0.0223,-0.0153,-0.0141,-0.0086,-0.0103,-0.0146,-0.0101,-0.01,-0.0007,0.0004,0.0021,0.0092,0.0099,0.0086,0.0089,0.0091,0.0093,0,0,0,0,0,0,0,-0.0288,-0.0282,-0.0236,-0.0234,-0.0227,-0.0189,-0.018,-0.013,-0.0081,-0.0143,-0.0137,-0.0129,-0.0003,0.0015,0.0025,0.0101,0.0085,0.009,0.0094,0.0096,0.0209,0.0209,0,0,0,0,0,0,-0.0307,-0.0286,-0.0239,-0.0234,-0.0254,-0.0189,-0.0179,-0.0176,-0.0082,-0.0068,-0.013,-0.0126,0.0005,0.0019,0.0031,0.0065,0.0091,0.0097,0.01,0.021,0.0209,0.0209,0,0,0,0,0,0,-0.0308,-0.0304,-0.0243,-0.0258,-0.0248,-0.0189,-0.0185,-0.0174,-0.0154,-0.0074,-0.0058,-0.0121,0.0006,0.0024,0.0069,0.0071,0.0099,0.0104,0.021,0.021,0.0209,0.0127,0,0,0,0,0,0,-0.0311,-0.0305,-0.031,-0.026,-0.0248,-0.0226,-0.0186,-0.0173,-0.0151,-0.0145,-0.0061,-0.0045,0.0008,0.006,0.0074,0.008,0.0109,0.0211,0.021,0.0209,0.013,0.0123,0.0118,0,0,0,0,0,-0.0313,-0.0325,-0.0311,-0.0305,-0.0256,-0.0227,-0.0218,-0.0171,-0.0152,-0.0149,-0.0095,-0.0048,0.0067,0.0064,0.0081,0.0088,0.0211,0.021,0.0209,0.0132,0.0125,0.0118,0,0,0,0,0,0,-0.0352,-0.0317,-0.03,-0.0301,-0.027,-0.0215,-0.0209,-0.018,-0.0136,-0.0128,-0.0053,-0.0034,0.0005,0.0054,0.0049,0.0118,0.0147,0.015,0.0083,0.0076,0.007,0.006,0.0113,0,0,0,0,0,-0.0366,-0.0365,-0.0324,-0.0325,-0.0314,-0.0264,-0.0247,-0.0218,-0.0173,-0.0152,-0.0096,-0.0036,0.0014,0.005,0.0098,0.0137,0.0184,0.0153,0.0146,0.0141,0.0143,0.0201,0.02,0.0206,0.0206,0.0207,0,0,-0.038,-0.0362,-0.036,-0.0333,-0.0306,-0.0298,-0.0251,-0.0233,-0.022,-0.0142,-0.011,-0.0058,0.0017,0.0057,0.008,0.0101,0.0164,0.014,0.0135,0.0141,0.02,0.0199,0.0199,0.0206,0.0206,0.0206,0,0,-0.0414,-0.0396,-0.0408,-0.0389,-0.0358,-0.0326,-0.0326,-0.0278,-0.025,-0.0217,-0.0159,-0.0109,-0.0033,0.0024,0.0063,0.0054,0.0123,0.0069,0.0043,0.0097,0.0097,0.0098,0.0154,0.016,0.0075,0.0075,0.0075,0,-0.0434,-0.0444,-0.0406,-0.0414,-0.0404,-0.0346,-0.0355,-0.0319,-0.0262,-0.0239,-0.0218,-0.0107,-0.0045,0.0016,0.0014,0.0042,0.0082,0.0062,0.0089,0.0091,0.0093,0.015,0.0158,0.0071,0.0071,0.0072,0.0072,0,-0.0476,-0.0483,-0.0489,-0.0479,-0.0462,-0.0462,-0.0412,-0.039,-0.0351,-0.0306,-0.0248,-0.0167,-0.0096,-0.007,-0.0026,0.002,0.0045,0.0065,0.0104,0.0087,0.0149,0.0159,0.0065,0.0066,0.0068,0.0069,0,0,-0.0522,-0.0521,-0.0523,-0.0534,-0.0499,-0.0492,-0.0471,-0.0432,-0.0414,-0.0349,-0.0315,-0.0226,-0.0176,-0.013,-0.0065,-0.001,0.0039,0.0029,0.0034,0.0079,0.016,0.0214,0.023,0.0059,0.0061,0.0062,0.0196,0,-0.0567,-0.0608,-0.0583,-0.061,-0.0626,-0.057,-0.0557,-0.051,-0.0454,-0.0405,-0.0309,-0.0255,-0.0199,-0.0166,-0.0103,0.0005,0.0061,0.0001,0.0176,0.0181,0.0226,0.0242,0.0275,0.0401,0.0206,0.0208,0.0209,0,-0.0615,-0.0638,-0.0681,-0.0684,-0.0684,-0.0683,-0.0647,-0.0625,-0.0535,-0.049,-0.041,-0.0333,-0.0231,-0.0192,-0.0014,-0.0058,0.0041,0.0123,0.0131,0.0219,0.0253,0.0389,0.0427,0.0563,0.0225,0.0224,0.0222,0,-0.0678,-0.0702,-0.0743,-0.0745,-0.0736,-0.0737,-0.0721,-0.0652,-0.0629,-0.0539,-0.0506,-0.0378,-0.0302,-0.0173,0.001,-0.0007,0.0207,0.0208,0.035,0.0355,0.044,0.045,0.0628,0.0323,0.0323,0.0322,0.0322,0,-0.074,-0.077,-0.0778,-0.0803,-0.0841,-0.0803,-0.0811,-0.0772,-0.0704,-0.0668,-0.0555,-0.0485,-0.0295,-0.0144,-0.0001,0.0221,0.0205,0.0357,0.0398,0.0411,0.0417,0.0585,0.0632,0.0328,0.0326,0.0325,0.0325,0,-0.0803,-0.0809,-0.0858,-0.087,-0.0876,-0.0901,-0.0884,-0.088,-0.0808,-0.0755,-0.073,-0.0552,-0.0345,-0.0144,0.0097,0.0222,0.0511,0.0491,0.0498,0.0537,0.0774,0.0814,0.1042,0.1125,0.0658,0.066,0.0662,0,-0.084,-0.0874,-0.0919,-0.0953,-0.0962,-0.0987,-0.0998,-0.0943,-0.0922,-0.0783,-0.0755,-0.0548,-0.0369,0.0009,0.0262,0.0533,0.0633,0.0709,0.0684,0.0809,0.0884,0.0908,0.0962,0.0764,0.0767,0.0769,0.0771,0,-0.0906,-0.092,-0.0961,-0.1037,-0.1069,-0.1098,-0.11,-0.11,-0.101,-0.0923,-0.0757,-0.06,-0.0226,0.0118,0.0463,0.0623,0.0812,0.0759,0.0896,0.0994,0.1027,0.1119,0.0651,0.0789,0.0787,0.0786,0.0785,0.0784,-0.0944,-0.0993,-0.1047,-0.1112,-0.1154,-0.1185,-0.1189,-0.1147,-0.108,-0.0905,-0.0759,-0.0454,-0.0015,0.0491,0.0669,0.1033,0.099,0.1134,0.1177,0.1193,0.1266,0.0838,0.1014,0.1013,0.1013,0.1012,0.1012,0,-0.0986,-0.104,-0.1115,-0.1184,-0.1233,-0.1235,-0.1232,-0.1177,-0.1066,-0.0853,-0.0637,-0.0094,0.0349,0.0746,0.1232,0.1432,0.1464,0.1531,0.1573,0.1611,0.125,0.1247,0.1473,0.1473,0.1473,0.1473,0.1473,0.1472,-0.101,-0.109,-0.1131,-0.1223,-0.1267,-0.1278,-0.1263,-0.1129,-0.0954,-0.0558,-0.0208,0.0063,0.0598,0.1315,0.1759,0.1804,0.1961,0.1959,0.2041,0.1783,0.1749,0.1716,0.1726,0.2049,0.2049,0.2387,0.239,0.2393]}],[{"header":{"parameterUnit":"m.s-1","parameterCategory":2,"la1":30.2991,"la2":30.254,"lo1":-89.0895,"lo2":-89.0444,"dy":0.0017,"dx":0.0017,"nx":28,"ny":28,"refTime":"2025-01-26T03:00:00:Z","depth":"2","parameterNumber":2,"parameterNumberName":"U-component_of_CURRENTS"},"data":[0,0,0,0,0,0,0,0,0,0,0,0,0,0,0,0,0,0,0,0,0,0,0,0,0,0,0,0,0,0,0,0,0,0,0,0,0,0,0,0,0,0,0,0,0,0,0,0,0,0,0,0,0,0,0,0,0,0,-0.2532,-0.2533,0,-0.2585,-0.2586,-0.2586,-0.2591,-0.2591,-0.259,-0.259,-0.2625,-0.2626,-0.2628,0,0,0,0,0,0,0,0,0,0,0,0,0,-0.2444,-0.2445,-0.2532,-0.2533,-0.2533,-0.2585,-0.2586,-0.2586,-0.2591,-0.259,-0.259,-0.259,-0.2625,-0.2626,-0.2628,0,0,0,0,0,0,0,0,0,0,0,0,0,-0.2486,-0.2446,-0.2532,-0.2544,-0.2545,-0.2585,-0.2586,-0.2587,-0.2591,-0.259,-0.259,-0.2589,-0.2624,-0.2626,-0.2628,-0.2651,0,0,-0.2634,-0.2635,0,0,0,0,0,0,0,0,-0.2484,-0.2489,-0.2541,-0.2543,-0.2545,-0.2583,-0.2568,-0.2608,-0.2591,-0.2571,-0.259,-0.2589,-0.2611,-0.2614,-0.2623,-0.2653,-0.2655,-0.2634,-0.2635,-0.2636,-0.2637,0,0,0,0,0,0,0,-0.2481,-0.2487,-0.2551,-0.2542,-0.2544,-0.255,-0.2555,-0.2576,-0.2592,-0.2573,-0.2574,-0.2584,-0.2612,-0.2621,-0.2624,-0.2655,-0.2634,-0.2636,-0.2637,-0.2638,-0.2689,-0.2689,0,0,0,0,0,0,-0.2479,-0.2484,-0.2549,-0.2553,-0.2515,-0.2552,-0.2558,-0.2569,-0.2592,-0.2596,-0.2584,-0.2584,-0.2618,-0.2621,-0.2625,-0.2639,-0.2636,-0.2638,-0.2639,-0.2688,-0.2689,-0.2689,0,0,0,0,0,0,-0.2477,-0.2484,-0.2547,-0.2521,-0.253,-0.2555,-0.2567,-0.2571,-0.2582,-0.2601,-0.2604,-0.2592,-0.2617,-0.2622,-0.2642,-0.2641,-0.2639,-0.2641,-0.2688,-0.2689,-0.2689,-0.2676,0,0,0,0,0,0,-0.2474,-0.2483,-0.2489,-0.2521,-0.2531,-0.2568,-0.2568,-0.2572,-0.259,-0.259,-0.2609,-0.2611,-0.2617,-0.2639,-0.2644,-0.2643,-0.2642,-0.2688,-0.2688,-0.2689,-0.2677,-0.2676,-0.2676,0,0,0,0,0,-0.2471,-0.2479,-0.2489,-0.2497,-0.2539,-0.2568,-0.2574,-0.2588,-0.2591,-0.2595,-0.2608,-0.2611,-0.2644,-0.2641,-0.2646,-0.2647,-0.2688,-0.2688,-0.2689,-0.2677,-0.2676,-0.2676,0,0,0,0,0,0,-0.244,-0.2481,-0.2493,-0.2512,-0.2538,-0.257,-0.2576,-0.2591,-0.2607,-0.2607,-0.262,-0.2624,-0.2638,-0.2648,-0.2644,-0.2662,-0.2664,-0.2666,-0.2653,-0.2653,-0.2653,-0.2649,-0.2644,0,0,0,0,0,-0.2439,-0.2454,-0.2495,-0.2507,-0.2522,-0.2551,-0.2565,-0.258,-0.26,-0.2607,-0.2621,-0.2635,-0.2645,-0.2653,-0.2665,-0.2683,-0.2675,-0.2685,-0.2684,-0.2684,-0.2685,-0.2671,-0.2669,-0.269,-0.269,-0.269,0,0,-0.2429,-0.2453,-0.2461,-0.2501,-0.2521,-0.2548,-0.2557,-0.2581,-0.2598,-0.2609,-0.263,-0.2637,-0.265,-0.2662,-0.2669,-0.267,-0.2673,-0.2684,-0.2684,-0.2685,-0.2671,-0.2669,-0.2667,-0.2691,-0.269,-0.269,0,0,-0.2419,-0.244,-0.2454,-0.2481,-0.2519,-0.2541,-0.255,-0.2588,-0.2597,-0.2625,-0.2629,-0.2634,-0.2664,-0.2663,-0.2668,-0.2676,-0.2671,-0.2682,-0.2679,-0.2666,-0.2664,-0.2662,-0.2641,-0.2638,-0.2682,-0.2682,-0.2682,0,-0.2407,-0.2433,-0.2461,-0.2486,-0.2507,-0.254,-0.2563,-0.2582,-0.2619,-0.2627,-0.2629,-0.2654,-0.2661,-0.2667,-0.2666,-0.2674,-0.2666,-0.2678,-0.2664,-0.2662,-0.2661,-0.264,-0.2636,-0.2682,-0.2682,-0.2682,-0.2682,0,-0.2415,-0.2439,-0.2448,-0.2492,-0.2516,-0.2539,-0.2578,-0.2598,-0.2616,-0.2633,-0.2645,-0.2652,-0.2664,-0.2663,-0.2669,-0.2661,-0.2659,-0.2663,-0.2662,-0.2657,-0.2636,-0.2633,-0.2681,-0.2681,-0.2681,-0.2681,0,0,-0.2375,-0.2442,-0.2444,-0.2467,-0.2523,-0.2542,-0.2574,-0.2607,-0.2625,-0.2643,-0.2658,-0.266,-0.266,-0.2666,-0.2666,-0.2654,-0.2628,-0.2655,-0.2654,-0.2629,-0.2593,-0.252,-0.2509,-0.2631,-0.263,-0.263,-0.258,0,-0.2371,-0.2414,-0.2451,-0.2487,-0.2512,-0.2555,-0.2582,-0.2615,-0.2639,-0.2662,-0.2659,-0.2672,-0.2663,-0.2667,-0.2651,-0.2646,-0.2619,-0.2641,-0.2607,-0.2606,-0.2537,-0.2503,-0.2324,-0.2258,-0.2576,-0.2576,-0.2575,0,-0.2361,-0.2395,-0.243,-0.249,-0.2505,-0.253,-0.2576,-0.2608,-0.2646,-0.2665,-0.2673,-0.2682,-0.2674,-0.2664,-0.2629,-0.2646,-0.2614,-0.2597,-0.2595,-0.253,-0.2525,-0.2317,-0.2239,-0.2569,-0.2569,-0.257,-0.257,0,-0.2308,-0.2374,-0.2399,-0.242,-0.2495,-0.2513,-0.255,-0.2598,-0.2623,-0.2663,-0.268,-0.268,-0.2678,-0.2649,-0.2616,-0.2625,-0.2571,-0.258,-0.2476,-0.2471,-0.2312,-0.2293,-0.2532,-0.2532,-0.2532,-0.2532,-0.2533,0,-0.2282,-0.2299,-0.2376,-0.2389,-0.2416,-0.2482,-0.2511,-0.2552,-0.2607,-0.2626,-0.2669,-0.2671,-0.2674,-0.2649,-0.2616,-0.2528,-0.2564,-0.2461,-0.2447,-0.2302,-0.2284,-0.2556,-0.2559,-0.2531,-0.2531,-0.2531,-0.2532,0,-0.221,-0.2265,-0.2294,-0.237,-0.239,-0.2406,-0.2481,-0.2503,-0.257,-0.2597,-0.2609,-0.2657,-0.2625,-0.2608,-0.2562,-0.2512,-0.245,-0.2404,-0.2231,-0.2197,-0.236,-0.2364,-0.2285,-0.2282,-0.2279,-0.2277,-0.2275,0,-0.2175,-0.2184,-0.2255,-0.2268,-0.2298,-0.234,-0.2366,-0.2458,-0.2487,-0.2571,-0.2571,-0.2576,-0.2531,-0.2449,-0.2373,-0.2282,-0.2361,-0.2073,-0.2052,-0.2337,-0.2332,-0.234,-0.2347,-0.1834,-0.1829,-0.1825,-0.1821,0,-0.2096,-0.2122,-0.2146,-0.2174,-0.2201,-0.2233,-0.2283,-0.2301,-0.2404,-0.2426,-0.2436,-0.2409,-0.2351,-0.2177,-0.2085,-0.2016,-0.208,-0.1981,-0.2305,-0.1934,-0.191,-0.1907,-0.1929,-0.1783,-0.1786,-0.1789,-0.1791,-0.1793,-0.202,-0.2013,-0.2042,-0.2053,-0.2085,-0.2092,-0.2068,-0.2132,-0.2141,-0.2133,-0.2222,-0.2116,-0.2098,-0.185,-0.1753,-0.1684,-0.1826,-0.1742,-0.1756,-0.1775,-0.174,-0.1714,-0.1543,-0.1545,-0.1547,-0.1549,-0.155,0,-0.1909,-0.1911,-0.1919,-0.1923,-0.1897,-0.196,-0.1977,-0.1919,-0.1867,-0.1889,-0.1856,-0.1641,-0.153,-0.1518,-0.1347,-0.1317,-0.1311,-0.1265,-0.1257,-0.1296,-0.133,-0.1274,-0.0952,-0.0951,-0.0949,-0.0947,0,0,-0.185,-0.1808,-0.1807,-0.1719,-0.1721,-0.1627,-0.1597,-0.1529,-0.1498,-0.1378,-0.1321,-0.1429,-0.1457,-0.1203,-0.1147,-0.1017,-0.1143,-0.0965,-0.1442,-0.1469,-0.1501,-0.16,-0.1557,0,0,0,0,0]},{"header":{"parameterUnit":"m.s-1","parameterCategory":2,"la1":30.2991,"la2":30.254,"lo1":-89.0895,"lo2":-89.0444,"dy":0.0017,"dx":0.0017,"nx":28,"ny":28,"refTime":"2025-01-26T03:00:00:Z","depth":"2","parameterNumber":3,"parameterNumberName":"V-component_of_CURRENTS"},"data":[0,0,0,0,0,0,0,0,0,0,0,0,0,0,0,0,0,0,0,0,0,0,0,0,0,0,0,0,0,0,0,0,0,0,0,0,0,0,0,0,0,0,0,0,0,0,0,0,0,0,0,0,0,0,0,0,0,0,-0.0341,-0.034,0,-0.0257,-0.0256,-0.0255,-0.0188,-0.0187,-0.0187,-0.0186,-0.0045,-0.0042,-0.0039,0,0,0,0,0,0,0,0,0,0,0,0,0,-0.0389,-0.0389,-0.0341,-0.034,-0.0339,-0.0257,-0.0256,-0.0255,-0.0188,-0.0187,-0.0187,-0.0186,-0.0046,-0.0043,-0.0039,0,0,0,0,0,0,0,0,0,0,0,0,0,-0.0342,-0.0389,-0.0341,-0.0297,-0.0292,-0.0258,-0.0256,-0.0254,-0.0188,-0.0187,-0.0186,-0.0186,-0.0048,-0.0043,-0.0038,-0.0026,0,0,-0.0023,-0.0021,0,0,0,0,0,0,0,0,-0.0345,-0.0341,-0.0304,-0.03,-0.0294,-0.0233,-0.0221,-0.0175,-0.0188,-0.0226,-0.0186,-0.0185,-0.0104,-0.0095,-0.008,-0.0019,-0.0013,-0.0023,-0.002,-0.0018,-0.0017,0,0,0,0,0,0,0,-0.0349,-0.0343,-0.0306,-0.0303,-0.0297,-0.0263,-0.0255,-0.0212,-0.0169,-0.0223,-0.0218,-0.0211,-0.0101,-0.0085,-0.0076,-0.0011,-0.0023,-0.0019,-0.0016,-0.0014,0.008,0.008,0,0,0,0,0,0,-0.0365,-0.0347,-0.0309,-0.0304,-0.0319,-0.0263,-0.0255,-0.0253,-0.0171,-0.0158,-0.0212,-0.0208,-0.0094,-0.0082,-0.0071,-0.0042,-0.0018,-0.0014,-0.0011,0.0081,0.008,0.008,0,0,0,0,0,0,-0.0367,-0.0363,-0.0312,-0.0324,-0.0315,-0.0264,-0.0261,-0.0251,-0.0234,-0.0163,-0.0149,-0.0204,-0.0092,-0.0078,-0.0038,-0.0036,-0.0011,-0.0007,0.0081,0.0081,0.008,0.001,0,0,0,0,0,0,-0.0368,-0.0364,-0.0369,-0.0326,-0.0315,-0.03,-0.0262,-0.0251,-0.0231,-0.0226,-0.0152,-0.0138,-0.0091,-0.0046,-0.0034,-0.0029,-0.0003,0.0082,0.0081,0.008,0.0013,0.0007,0.0002,0,0,0,0,0,-0.0371,-0.0383,-0.037,-0.0365,-0.0324,-0.03,-0.0292,-0.0251,-0.0232,-0.023,-0.0182,-0.014,-0.0041,-0.0043,-0.0028,-0.0022,0.0082,0.0081,0.008,0.0015,0.0008,0.0002,0,0,0,0,0,0,-0.0406,-0.0376,-0.0361,-0.0363,-0.0337,-0.029,-0.0285,-0.0258,-0.022,-0.0212,-0.0146,-0.0129,-0.0096,-0.0053,-0.0056,0.0002,0.0028,0.003,-0.0027,-0.0033,-0.0038,-0.0046,0.0001,0,0,0,0,0,-0.0419,-0.0419,-0.0384,-0.0386,-0.0377,-0.0333,-0.0319,-0.0292,-0.0253,-0.0235,-0.0185,-0.0132,-0.0089,-0.0057,-0.0017,0.0017,0.0062,0.003,0.0025,0.002,0.0023,0.0083,0.0083,0.0077,0.0077,0.0077,0,0,-0.0432,-0.0417,-0.0416,-0.0394,-0.037,-0.0364,-0.0322,-0.0307,-0.0295,-0.0226,-0.0197,-0.0153,-0.0087,-0.0053,-0.0033,-0.0014,0.0044,0.0019,0.0014,0.0021,0.0082,0.0082,0.0083,0.0077,0.0077,0.0077,0,0,-0.0465,-0.0449,-0.0461,-0.0445,-0.0419,-0.039,-0.0391,-0.0349,-0.0323,-0.0295,-0.0243,-0.0198,-0.0134,-0.0082,-0.0048,-0.0057,0.0006,-0.0047,-0.0066,-0.001,-0.0009,-0.0007,0.0043,0.005,-0.004,-0.004,-0.004,0,-0.0483,-0.0492,-0.0461,-0.0468,-0.0458,-0.0408,-0.0416,-0.0385,-0.0335,-0.0312,-0.0296,-0.0197,-0.0145,-0.0087,-0.009,-0.0067,-0.0029,-0.0049,-0.0016,-0.0014,-0.0011,0.0041,0.0049,-0.0044,-0.0043,-0.0043,-0.0042,0,-0.0522,-0.0528,-0.0534,-0.0525,-0.0511,-0.0511,-0.0467,-0.0448,-0.0413,-0.0372,-0.0319,-0.0249,-0.0185,-0.0164,-0.0127,-0.008,-0.0059,-0.0039,-0.0002,-0.0015,0.004,0.005,-0.0049,-0.0047,-0.0046,-0.0045,0,0,-0.0565,-0.0564,-0.0565,-0.0572,-0.0542,-0.0537,-0.0518,-0.0481,-0.0462,-0.0406,-0.037,-0.0294,-0.0249,-0.0208,-0.0153,-0.0099,-0.0049,-0.0065,-0.006,-0.0018,0.0072,0.0101,0.0115,-0.0025,-0.0024,-0.0023,0.01,0,-0.0605,-0.064,-0.0618,-0.0639,-0.0652,-0.0602,-0.0589,-0.0546,-0.0496,-0.0449,-0.0362,-0.0313,-0.0267,-0.0238,-0.0176,-0.0082,-0.0025,-0.0084,0.0082,0.0087,0.0112,0.0127,0.0098,0.0205,0.011,0.0112,0.0113,0,-0.0648,-0.0667,-0.0702,-0.07,-0.0699,-0.0699,-0.0663,-0.0643,-0.0559,-0.0517,-0.0442,-0.0373,-0.0279,-0.0247,-0.0083,-0.0125,-0.0034,0.004,0.0047,0.0107,0.0134,0.0206,0.0228,0.013,0.0129,0.0127,0.0126,0,-0.0702,-0.0721,-0.0754,-0.0755,-0.0744,-0.0743,-0.0729,-0.0665,-0.0644,-0.0557,-0.0525,-0.0406,-0.0342,-0.0217,-0.006,-0.0072,0.0121,0.0127,0.0241,0.0244,0.0271,0.0274,0.0242,0.0242,0.0241,0.0241,0.0241,0,-0.0755,-0.0779,-0.0785,-0.0805,-0.0837,-0.0802,-0.0807,-0.077,-0.0708,-0.0679,-0.0566,-0.0507,-0.0333,-0.0198,-0.0065,0.0126,0.0124,0.0247,0.0283,0.0244,0.0243,0.0219,0.0215,0.0246,0.0245,0.0244,0.0243,0,-0.0809,-0.0813,-0.0854,-0.0862,-0.0867,-0.0889,-0.0876,-0.0872,-0.0804,-0.0759,-0.0735,-0.0576,-0.0396,-0.0211,0.0009,0.0122,0.0296,0.0363,0.0303,0.033,0.0379,0.0369,0.0498,0.05,0.0502,0.0503,0.0504,0,-0.084,-0.0869,-0.0908,-0.094,-0.0948,-0.097,-0.0983,-0.0931,-0.0915,-0.0794,-0.0772,-0.0592,-0.0444,-0.0107,0.0119,0.0366,0.0364,0.0473,0.0448,0.0386,0.0408,0.0396,0.0384,0.0454,0.0455,0.0456,0.0456,0,-0.0898,-0.0911,-0.0946,-0.1017,-0.1049,-0.1077,-0.1082,-0.1085,-0.1007,-0.0937,-0.0803,-0.0673,-0.0349,-0.0073,0.0239,0.0377,0.0428,0.0494,0.0467,0.0387,0.0353,0.0372,0.036,0.0462,0.0461,0.0461,0.046,0.046,-0.0932,-0.0976,-0.1026,-0.1087,-0.113,-0.1165,-0.1176,-0.1147,-0.11,-0.0967,-0.0838,-0.0598,-0.0352,0.0108,0.0321,0.052,0.0512,0.0559,0.0553,0.0548,0.0514,0.0485,0.0612,0.0612,0.0612,0.0613,0.0613,0,-0.0972,-0.1021,-0.1091,-0.116,-0.1212,-0.1215,-0.1223,-0.1194,-0.1122,-0.096,-0.0791,-0.0485,-0.0163,0.0103,0.042,0.0597,0.0575,0.0624,0.0555,0.0549,0.0543,0.0506,0.0603,0.0604,0.0604,0.0605,0,0,-0.0995,-0.1069,-0.1107,-0.1205,-0.1252,-0.1284,-0.1281,-0.1208,-0.1083,-0.0908,-0.0711,-0.046,-0.014,0.0079,0.0298,0.0464,0.0459,0.0479,0.0468,0.0353,0.0346,0.0488,0.0421,0,0,0,0,0]}],[{"header":{"parameterUnit":"m.s-1","parameterCategory":2,"la1":30.2991,"la2":30.254,"lo1":-89.0895,"lo2":-89.0444,"dy":0.0017,"dx":0.0017,"nx":28,"ny":28,"refTime":"2025-01-26T03:00:00:Z","depth":"4","parameterNumber":2,"parameterNumberName":"U-component_of_CURRENTS"},"data":[0,0,0,0,0,0,0,0,0,0,0,0,0,0,0,0,0,0,0,0,0,0,0,0,0,0,0,0,0,0,0,0,0,0,0,0,0,0,0,0,0,0,0,0,0,0,0,0,0,0,0,0,0,0,0,0,0,0,-0.1784,-0.1785,0,-0.1864,-0.1865,-0.1866,-0.1924,-0.1925,-0.1925,-0.1926,-0.2026,-0.2028,-0.203,0,0,0,0,0,0,0,0,0,0,0,0,0,-0.1684,-0.1685,-0.1784,-0.1785,-0.1786,-0.1864,-0.1865,-0.1866,-0.1924,-0.1925,-0.1925,-0.1926,-0.2026,-0.2028,-0.2031,0,0,0,0,0,0,0,0,0,0,0,0,0,-0.174,-0.1685,-0.1784,-0.1825,-0.183,-0.1864,-0.1865,-0.1866,-0.1924,-0.1925,-0.1926,-0.1926,-0.2025,-0.2028,-0.2031,-0.2032,0,0,-0.2041,-0.2042,0,0,0,0,0,0,0,0,-0.1737,-0.1744,-0.1818,-0.1823,-0.1828,-0.1886,-0.1866,-0.1923,-0.1924,-0.1887,-0.1926,-0.1927,-0.1981,-0.1988,-0.1999,-0.2037,-0.2041,-0.2041,-0.2043,-0.2044,-0.2045,0,0,0,0,0,0,0,-0.1733,-0.1741,-0.1814,-0.1819,-0.1825,-0.1841,-0.185,-0.1877,-0.1927,-0.189,-0.1895,-0.1905,-0.1984,-0.1996,-0.2002,-0.2042,-0.2041,-0.2044,-0.2045,-0.2047,-0.2153,-0.2153,0,0,0,0,0,0,-0.1725,-0.1737,-0.1812,-0.1817,-0.1785,-0.1842,-0.1852,-0.1865,-0.1927,-0.1937,-0.1905,-0.1908,-0.199,-0.1998,-0.2006,-0.2072,-0.2044,-0.2047,-0.2049,-0.2152,-0.2153,-0.2154,0,0,0,0,0,0,-0.1722,-0.1731,-0.1809,-0.178,-0.1791,-0.1843,-0.1857,-0.1867,-0.1911,-0.1938,-0.1949,-0.1943,-0.1991,-0.2001,-0.2056,-0.2074,-0.2048,-0.2051,-0.2151,-0.2152,-0.2153,-0.2165,0,0,0,0,0,0,-0.1719,-0.1729,-0.1751,-0.1779,-0.1792,-0.1845,-0.1857,-0.1868,-0.1914,-0.192,-0.1974,-0.1982,-0.1993,-0.2051,-0.2059,-0.2078,-0.2054,-0.2149,-0.2151,-0.2153,-0.2164,-0.2167,-0.2169,0,0,0,0,0,-0.1715,-0.1733,-0.1752,-0.1762,-0.1816,-0.1845,-0.1854,-0.1893,-0.1916,-0.1936,-0.1976,-0.1982,-0.2067,-0.2055,-0.2064,-0.2084,-0.2149,-0.2151,-0.2153,-0.2162,-0.2166,-0.2169,0,0,0,0,0,0,-0.1702,-0.1742,-0.1763,-0.1794,-0.1827,-0.1856,-0.1883,-0.191,-0.1957,-0.1974,-0.1999,-0.201,-0.2061,-0.2074,-0.2059,-0.2119,-0.2107,-0.2111,-0.2111,-0.2115,-0.2118,-0.2111,-0.2056,0,0,0,0,0,-0.1708,-0.1734,-0.1771,-0.1799,-0.1817,-0.1857,-0.1882,-0.1909,-0.1946,-0.197,-0.2007,-0.2044,-0.207,-0.2096,-0.2121,-0.216,-0.2149,-0.2178,-0.2181,-0.2183,-0.2184,-0.2179,-0.2181,-0.216,-0.216,-0.216,0,0,-0.1712,-0.1737,-0.1754,-0.1799,-0.1828,-0.186,-0.1875,-0.1919,-0.1952,-0.1972,-0.2038,-0.206,-0.2084,-0.2123,-0.2146,-0.2141,-0.2182,-0.2186,-0.2188,-0.2187,-0.2181,-0.2183,-0.2184,-0.2162,-0.2162,-0.2161,0,0,-0.1718,-0.1754,-0.1777,-0.1807,-0.1858,-0.1881,-0.19,-0.195,-0.1983,-0.2039,-0.2057,-0.209,-0.2148,-0.2156,-0.2168,-0.2205,-0.2196,-0.2221,-0.2234,-0.2229,-0.223,-0.2231,-0.221,-0.2209,-0.2224,-0.2224,-0.2224,0,-0.1724,-0.1757,-0.1789,-0.1818,-0.1849,-0.1894,-0.1926,-0.1961,-0.2025,-0.2049,-0.2067,-0.2137,-0.2158,-0.2185,-0.2198,-0.221,-0.2204,-0.2217,-0.2231,-0.2232,-0.2233,-0.2211,-0.2209,-0.2224,-0.2224,-0.2224,-0.2224,0,-0.1739,-0.1781,-0.1797,-0.185,-0.1885,-0.1921,-0.1968,-0.2013,-0.206,-0.2089,-0.2143,-0.2167,-0.2204,-0.2214,-0.2222,-0.224,-0.2231,-0.2232,-0.2217,-0.2235,-0.2211,-0.221,-0.2226,-0.2225,-0.2225,-0.2225,0,0,-0.1712,-0.1794,-0.1803,-0.1838,-0.1908,-0.1934,-0.1992,-0.2045,-0.2085,-0.2138,-0.218,-0.2215,-0.223,-0.2243,-0.2252,-0.225,-0.2246,-0.225,-0.2249,-0.222,-0.2227,-0.2089,-0.2073,-0.2253,-0.2253,-0.2253,-0.2205,0,-0.1719,-0.1777,-0.1818,-0.1881,-0.1915,-0.1974,-0.2022,-0.2077,-0.2126,-0.2177,-0.2198,-0.2241,-0.224,-0.2262,-0.226,-0.226,-0.2244,-0.2258,-0.2223,-0.2221,-0.2088,-0.2068,-0.2253,-0.2204,-0.2203,-0.2203,-0.2203,0,-0.1713,-0.1757,-0.1819,-0.1902,-0.1924,-0.197,-0.2052,-0.21,-0.2168,-0.2206,-0.2244,-0.2267,-0.2285,-0.2279,-0.2266,-0.2279,-0.2253,-0.2239,-0.2237,-0.2101,-0.2078,-0.2186,-0.2199,-0.22,-0.22,-0.22,-0.22,0,-0.1662,-0.1752,-0.1805,-0.1835,-0.1934,-0.1979,-0.2035,-0.2111,-0.215,-0.2225,-0.2255,-0.2284,-0.2302,-0.2286,-0.226,-0.2272,-0.2229,-0.2238,-0.2079,-0.2069,-0.2205,-0.2205,-0.2206,-0.2206,-0.2206,-0.2206,-0.2207,0,-0.1633,-0.1678,-0.1793,-0.182,-0.1884,-0.1964,-0.2031,-0.2089,-0.2167,-0.2195,-0.2264,-0.227,-0.2306,-0.2289,-0.2262,-0.2151,-0.2224,-0.2064,-0.2041,-0.2211,-0.2212,-0.2203,-0.2203,-0.2205,-0.2205,-0.2205,-0.2206,0,-0.1559,-0.1639,-0.1704,-0.1822,-0.1861,-0.1906,-0.2019,-0.2054,-0.2145,-0.2182,-0.2205,-0.2264,-0.2234,-0.2235,-0.2202,-0.2128,-0.2057,-0.1997,-0.2166,-0.2157,-0.1903,-0.1905,-0.1813,-0.1808,-0.1803,-0.18,-0.1796,0,-0.1522,-0.1552,-0.1685,-0.1722,-0.178,-0.1864,-0.1911,-0.2025,-0.2054,-0.2147,-0.2141,-0.216,-0.2173,-0.2,-0.2034,-0.1951,-0.1927,-0.188,-0.1896,-0.1872,-0.186,-0.1869,-0.1877,-0.1789,-0.1788,-0.1787,-0.1785,0,-0.1444,-0.1509,-0.1561,-0.1636,-0.17,-0.1756,-0.1832,-0.1837,-0.1947,-0.2055,-0.2002,-0.1969,-0.1928,-0.1889,-0.183,-0.178,-0.1911,-0.1832,-0.1841,-0.1856,-0.1842,-0.1836,-0.1849,-0.1769,-0.1772,-0.1773,-0.1774,0,-0.1384,-0.1399,-0.1474,-0.1521,-0.1597,-0.1606,-0.167,-0.1689,-0.1729,-0.1838,-0.1814,-0.1835,-0.19,-0.1798,-0.175,-0.1683,-0.1661,-0.1607,-0.1628,-0.1646,-0.1613,-0.1573,-0.1378,0,0,0,0,0,-0.1311,-0.1308,-0.1347,-0.1388,-0.1456,-0.1491,-0.1591,-0.1657,-0.1768,-0.1677,-0.1738,-0.1688,-0.1615,-0.1636,-0.1526,-0.1679,-0.1672,-0.1547,-0.1624,-0.1681,-0.1699,-0.1677,0,0,0,0,0,0,-0.126,-0.1293,-0.1299,-0.1257,-0.1256,-0.1307,-0.1359,-0.1442,-0.1403,-0.1522,-0.1484,-0.1578,-0.1528,-0.1633,-0.1485,-0.149,-0.1502,-0.1578,-0.1573,-0.167,-0.1687,-0.1702,-0.1685,0,0,0,0,0]},{"header":{"parameterUnit":"m.s-1","parameterCategory":2,"la1":30.2991,"la2":30.254,"lo1":-89.0895,"lo2":-89.0444,"dy":0.0017,"dx":0.0017,"nx":28,"ny":28,"refTime":"2025-01-26T03:00:00:Z","depth":"4","parameterNumber":3,"parameterNumberName":"V-component_of_CURRENTS"},"data":[0,0,0,0,0,0,0,0,0,0,0,0,0,0,0,0,0,0,0,0,0,0,0,0,0,0,0,0,0,0,0,0,0,0,0,0,0,0,0,0,0,0,0,0,0,0,0,0,0,0,0,0,0,0,0,0,0,0,-0.0273,-0.0272,0,-0.022,-0.022,-0.0219,-0.0175,-0.0175,-0.0175,-0.0174,-0.0073,-0.0071,-0.0069,0,0,0,0,0,0,0,0,0,0,0,0,0,-0.0295,-0.0295,-0.0273,-0.0272,-0.0272,-0.0221,-0.022,-0.0219,-0.0175,-0.0175,-0.0174,-0.0174,-0.0074,-0.0071,-0.0068,0,0,0,0,0,0,0,0,0,0,0,0,0,-0.0268,-0.0295,-0.0273,-0.0245,-0.0242,-0.0221,-0.022,-0.0219,-0.0175,-0.0175,-0.0174,-0.0174,-0.0075,-0.0072,-0.0068,-0.0057,0,0,-0.0057,-0.0056,0,0,0,0,0,0,0,0,-0.0269,-0.0267,-0.0249,-0.0247,-0.0243,-0.0205,-0.0191,-0.0163,-0.0176,-0.0199,-0.0174,-0.0174,-0.0114,-0.0107,-0.0098,-0.0052,-0.0048,-0.0057,-0.0055,-0.0053,-0.0052,0,0,0,0,0,0,0,-0.0271,-0.0268,-0.0251,-0.0249,-0.0245,-0.0221,-0.0217,-0.0185,-0.0159,-0.0197,-0.0194,-0.019,-0.0112,-0.0101,-0.0095,-0.0047,-0.0057,-0.0054,-0.0052,-0.005,0.0015,0.0015,0,0,0,0,0,0,-0.0283,-0.0271,-0.0253,-0.0249,-0.0257,-0.0221,-0.0216,-0.0217,-0.016,-0.0151,-0.0191,-0.0189,-0.0107,-0.0099,-0.0091,-0.0074,-0.0053,-0.005,-0.0048,0.0016,0.0015,0.0015,0,0,0,0,0,0,-0.0284,-0.0282,-0.0255,-0.0259,-0.0254,-0.0222,-0.0222,-0.0216,-0.0207,-0.0156,-0.0146,-0.0189,-0.0107,-0.0096,-0.007,-0.0069,-0.0048,-0.0045,0.0016,0.0016,0.0015,-0.0039,0,0,0,0,0,0,-0.0285,-0.0283,-0.029,-0.026,-0.0255,-0.025,-0.0223,-0.0215,-0.0206,-0.0203,-0.0151,-0.0141,-0.0105,-0.0075,-0.0066,-0.0064,-0.0042,0.0017,0.0016,0.0015,-0.0037,-0.0042,-0.0046,0,0,0,0,0,-0.0286,-0.0298,-0.029,-0.0288,-0.0264,-0.0251,-0.0246,-0.0219,-0.0207,-0.0208,-0.0174,-0.0143,-0.0073,-0.0073,-0.0062,-0.0059,0.0017,0.0016,0.0015,-0.0035,-0.0041,-0.0045,0,0,0,0,0,0,-0.0312,-0.0294,-0.0285,-0.0292,-0.0276,-0.0244,-0.0245,-0.0226,-0.0201,-0.0198,-0.0148,-0.0136,-0.0115,-0.0082,-0.0083,-0.0043,-0.0022,-0.0021,-0.0064,-0.0069,-0.0073,-0.0078,-0.004,0,0,0,0,0,-0.0322,-0.0327,-0.0304,-0.0311,-0.0306,-0.0277,-0.0269,-0.0253,-0.0226,-0.0215,-0.018,-0.0141,-0.011,-0.0087,-0.0058,-0.0034,0.0006,-0.0025,-0.0029,-0.0033,-0.003,0.0027,0.0029,0.0012,0.0012,0.0012,0,0,-0.0334,-0.0326,-0.0328,-0.0317,-0.0303,-0.0302,-0.0271,-0.0265,-0.0259,-0.0207,-0.0192,-0.016,-0.011,-0.0086,-0.0072,-0.0056,-0.001,-0.0034,-0.0038,-0.0032,0.0026,0.0028,0.003,0.0012,0.0012,0.0012,0,0,-0.0361,-0.0355,-0.0367,-0.0358,-0.0344,-0.0326,-0.0328,-0.0301,-0.0285,-0.0268,-0.0229,-0.0196,-0.0153,-0.011,-0.0084,-0.0093,-0.0042,-0.0088,-0.0102,-0.0047,-0.0045,-0.0043,-0.0001,0.0006,-0.0082,-0.0082,-0.0082,0,-0.0377,-0.0388,-0.0369,-0.0377,-0.0373,-0.034,-0.0349,-0.0329,-0.0297,-0.028,-0.0272,-0.0199,-0.016,-0.0113,-0.0118,-0.0101,-0.0068,-0.0087,-0.0052,-0.0049,-0.0046,-0.0003,0.0005,-0.0085,-0.0084,-0.0084,-0.0084,0,-0.0408,-0.0418,-0.0425,-0.0424,-0.0417,-0.0421,-0.0392,-0.0382,-0.036,-0.033,-0.0291,-0.024,-0.0189,-0.0175,-0.0148,-0.0105,-0.009,-0.0071,-0.0039,-0.0047,-0.0002,0.0007,-0.0088,-0.0087,-0.0087,-0.0086,0,0,-0.044,-0.0447,-0.045,-0.0458,-0.0443,-0.0441,-0.0432,-0.0406,-0.0394,-0.0356,-0.0327,-0.0272,-0.0237,-0.0205,-0.0162,-0.0114,-0.0067,-0.0088,-0.0084,-0.0047,0.0045,0.0025,0.0034,-0.0043,-0.0041,-0.004,0.0064,0,-0.047,-0.0502,-0.049,-0.0512,-0.0524,-0.0492,-0.0486,-0.0457,-0.0422,-0.0388,-0.0318,-0.0283,-0.0249,-0.0228,-0.0172,-0.0096,-0.0044,-0.0097,0.0048,0.0053,0.0036,0.0044,-0.0035,0.0071,0.0073,0.0075,0.0076,0,-0.0501,-0.0519,-0.0552,-0.0557,-0.0558,-0.0566,-0.0545,-0.0533,-0.047,-0.044,-0.038,-0.0326,-0.0248,-0.0224,-0.0084,-0.0122,-0.0044,0.0017,0.0024,0.0032,0.005,0.0084,0.0094,0.0092,0.0091,0.009,0.0089,0,-0.0534,-0.0558,-0.0588,-0.0592,-0.0593,-0.06,-0.0596,-0.0552,-0.0539,-0.0471,-0.0449,-0.0347,-0.0298,-0.0187,-0.0064,-0.0071,0.009,0.0101,0.0161,0.0161,0.0172,0.0169,0.0207,0.0207,0.0207,0.0206,0.0206,0,-0.0564,-0.0589,-0.0613,-0.0631,-0.0665,-0.0645,-0.066,-0.0635,-0.0592,-0.0573,-0.0481,-0.0438,-0.0287,-0.0178,-0.0065,0.0073,0.0096,0.0162,0.0189,0.0145,0.0137,0.0179,0.0174,0.021,0.0209,0.0209,0.0208,0,-0.0592,-0.0607,-0.0648,-0.0672,-0.0685,-0.071,-0.072,-0.0722,-0.0675,-0.0645,-0.0627,-0.0499,-0.0358,-0.0204,-0.0017,0.0063,0.0201,0.0248,0.0182,0.0204,0.0235,0.0227,0.0322,0.0322,0.0323,0.0323,0.0323,0,-0.0606,-0.0632,-0.0691,-0.0727,-0.0745,-0.0779,-0.0801,-0.0772,-0.0763,-0.068,-0.0661,-0.0526,-0.0427,-0.017,-0.0017,0.0199,0.0227,0.0292,0.0268,0.0232,0.0249,0.024,0.0231,0.0323,0.0323,0.0323,0.0323,0,-0.0632,-0.066,-0.0696,-0.0777,-0.0822,-0.0858,-0.088,-0.0879,-0.083,-0.0793,-0.0673,-0.0532,-0.0369,-0.0172,-0.0004,0.0149,0.0242,0.0294,0.0295,0.0273,0.0234,0.0249,0.0241,0.0324,0.0324,0.0324,0.0324,0,-0.065,-0.0689,-0.0749,-0.0811,-0.0877,-0.0914,-0.0922,-0.0892,-0.0868,-0.0765,-0.0728,-0.0538,-0.0423,-0.0197,-0.0042,0.0103,0.0136,0.0172,0.0179,0.018,0.0101,0.0029,0.0084,0,0,0,0,0,-0.066,-0.0708,-0.0777,-0.0846,-0.0912,-0.0942,-0.096,-0.095,-0.0906,-0.0827,-0.077,-0.0611,-0.0363,-0.0247,-0.0103,-0.0058,0.0142,0.0111,0.0181,0.0328,0.0327,0.0255,0,0,0,0,0,0,-0.0669,-0.0738,-0.0776,-0.0857,-0.0909,-0.0968,-0.098,-0.0953,-0.0889,-0.0825,-0.0684,-0.0594,-0.0348,-0.0444,-0.0104,-0.006,-0.0001,0.0236,0.0239,0.0328,0.0327,0.0327,0.0253,0,0,0,0,0]}]]